FW2567 Weather Reports


Display with metric or nautical units.
time (UTC)temp
F
wind
direction
speed
MPH
gust
MPH
rain 1hr
in
rain 24hr
in
rain mn
in
humidity
%
barometer
mb
20210803080049 61 157 0.0 0.0 0.00 0.00 0.00 80 1019.9
20210803073033 62 130 1.0 0.0 0.00 0.00 0.00 77 1019.9
20210803071546 63 140 1.0 0.0 0.00 0.00 0.00 73 1019.9
20210803064547 64 159 1.0 0.0 0.00 0.00 0.00 71 1019.5
20210803063031 64 160 1.0 0.0 0.00 0.00 0.00 72 1019.5
20210803061531 64 157 1.0 0.0 0.00 0.00 0.00 71 1019.5
20210803060040 65 157 0.0 0.0 0.00 0.00 0.00 69 1019.5
20210803054625 66 157 0.0 0.0 0.00 0.00 0.00 69 1019.5
20210803053042 67 155 2.0 0.0 0.00 0.00 0.00 68 1019.5
20210803051541 67 150 2.0 0.0 0.00 0.00 0.00 68 1019.5
20210803050033 68 145 1.0 0.0 0.00 0.00 0.00 67 1019.2
20210803044536 69 144 3.0 0.0 0.00 0.00 0.00 66 1019.2
20210803043032 71 155 1.0 0.0 0.00 0.00 0.00 65 1019.2
20210803041539 71 138 3.0 0.0 0.00 0.00 0.00 66 1018.8
20210803040041 72 159 4.0 0.0 0.00 0.00 0.00 70 1018.8
20210803034547 73 148 2.0 0.0 0.00 0.00 0.00 73 1018.5
20210803033115 75 151 4.0 0.0 0.00 0.00 0.00 71 1018.5
20210803031543 78 153 2.0 0.0 0.00 0.00 0.00 70 1018.1
20210803030034 79 185 1.0 0.0 0.00 0.00 0.00 70 1018.1
20210803024539 80 191 2.0 0.0 0.00 0.00 0.00 69 1017.7
20210803023035 84 157 0.0 0.0 0.00 0.00 0.00 64 1017.7
20210803020033 85 157 0.0 0.0 0.00 0.00 0.00 62 1017.7
20210803014537 88 152 2.0 0.0 0.00 0.00 0.00 60 1018.1
20210803013034 90 181 1.0 0.0 0.00 0.00 0.00 60 1018.1
20210803011538 92 168 2.0 0.0 0.00 0.00 0.00 58 1018.1
20210803010045 92 157 0.0 0.0 0.00 0.00 0.00 56 1017.7
20210803004644 92 215 0.0 0.0 0.00 0.00 0.00 52 1017.7
20210803003031 94 270 2.0 0.0 0.00 0.00 0.00 40 1017.7
20210803001538 95 294 2.0 0.0 0.00 0.00 0.00 31 1018.1
20210803000108 96 266 2.0 0.0 0.00 0.00 0.00 41 1018.1
20210802234540 94 208 2.0 0.0 0.00 0.00 0.00 47 1018.5
20210802233033 93 221 2.0 0.0 0.00 0.00 0.00 46 1018.5
20210802231540 94 247 2.0 0.0 0.00 0.00 0.00 41 1018.5
20210802230038 93 238 2.0 0.0 0.00 0.00 0.00 38 1018.8
20210802224537 93 267 3.0 0.0 0.00 0.00 0.00 32 1018.8
20210802223116 93 332 1.0 0.0 0.00 0.00 0.00 30 1018.8
20210802221541 92 340 2.0 0.0 0.00 0.00 0.00 31 1019.2
20210802220116 91 346 3.0 0.0 0.00 0.00 0.00 33 1019.2
20210802214531 92 29 4.0 0.0 0.00 0.00 0.00 33 1019.2
20210802213047 92 33 3.0 0.0 0.00 0.00 0.00 35 1019.2
20210802211550 91 297 1.0 0.0 0.00 0.00 0.00 37 1019.5
20210802210033 90 287 3.0 0.0 0.00 0.00 0.00 39 1019.5
20210802204535 91 7 2.0 0.0 0.00 0.00 0.00 41 1019.9
20210802203039 90 226 1.0 0.0 0.00 0.00 0.00 44 1020.2
20210802201551 90 241 2.0 0.0 0.00 0.00 0.00 43 1020.2
20210802200037 89 200 1.0 0.0 0.00 0.00 0.00 45 1020.6
20210802194545 88 166 2.0 0.0 0.00 0.00 0.00 44 1020.6
20210802193031 88 187 2.0 0.0 0.00 0.00 0.00 44 1020.9
20210802191548 87 168 1.0 0.0 0.00 0.00 0.00 44 1021.3
20210802190034 86 199 0.0 0.0 0.00 0.00 0.00 43 1021.3
20210802184558 85 202 0.0 0.0 0.00 0.00 0.00 44 1021.3
20210802183045 85 241 0.0 0.0 0.00 0.00 0.00 44 1021.6
20210802181537 84 233 0.0 0.0 0.00 0.00 0.00 43 1021.6
20210802180050 82 268 0.0 0.0 0.00 0.00 0.00 43 1021.6
20210802174537 82 189 0.0 0.0 0.00 0.00 0.00 45 1021.6
20210802173044 81 175 0.0 0.0 0.00 0.00 0.00 45 1022.0
20210802171547 80 230 0.0 0.0 0.00 0.00 0.00 46 1021.6
20210802170037 78 43 0.0 0.0 0.00 0.00 0.00 46 1022.0
20210802164601 77 30 0.0 0.0 0.00 0.00 0.00 49 1022.0
20210802163102 76 59 0.0 0.0 0.00 0.00 0.00 54 1022.0
20210802161540 73 24 0.0 0.0 0.00 0.00 0.00 59 1022.0
20210802154540 72 135 0.0 0.0 0.00 0.00 0.00 63 1022.0
20210802153053 67 135 0.0 0.0 0.00 0.00 0.00 78 1022.4
20210802150038 64 135 0.0 0.0 0.00 0.00 0.00 86 1022.4
20210802144552 61 135 0.0 0.0 0.00 0.00 0.00 89 1022.4
20210802143042 58 135 0.0 0.0 0.00 0.00 0.00 91 1022.0
20210802141537 56 135 0.0 0.0 0.00 0.00 0.00 92 1022.0
20210802140035 53 138 1.0 0.0 0.00 0.00 0.00 93 1022.0
20210802134534 51 159 1.0 0.0 0.00 0.00 0.00 94 1021.6
20210802133039 50 163 1.0 0.0 0.00 0.00 0.00 93 1021.6
20210802131543 50 157 1.0 0.0 0.00 0.00 0.00 93 1021.6
20210802130047 50 157 1.0 0.0 0.00 0.00 0.00 92 1021.3
20210802124536 51 157 1.0 0.0 0.00 0.00 0.00 92 1021.3
20210802123104 51 157 1.0 0.0 0.00 0.00 0.00 91 1021.3
20210802121553 51 157 1.0 0.0 0.00 0.00 0.00 90 1021.3
20210802120044 51 157 1.0 0.0 0.00 0.00 0.00 89 1021.3
20210802114539 52 157 0.0 0.0 0.00 0.00 0.00 89 1021.3
20210802113035 52 191 0.0 0.0 0.00 0.00 0.00 89 1021.3
20210802111548 52 177 1.0 0.0 0.00 0.00 0.00 88 1020.9
20210802110037 53 157 1.0 0.0 0.00 0.00 0.00 86 1020.9
20210802104549 54 117 0.0 0.0 0.00 0.00 0.00 85 1020.9
20210802103035 54 90 0.0 0.0 0.00 0.00 0.00 85 1020.6
20210802101605 55 90 0.0 0.0 0.00 0.00 0.00 85 1020.6
20210802100045 55 90 0.0 0.0 0.00 0.00 0.00 86 1020.9
20210802094547 55 90 0.0 0.0 0.00 0.00 0.00 86 1020.9
20210802093116 55 90 0.0 0.0 0.00 0.00 0.00 86 1020.9
20210802091539 55 90 0.0 0.0 0.00 0.00 0.00 85 1020.9
20210802090039 56 184 0.0 0.0 0.00 0.00 0.00 84 1020.9
20210802084607 57 181 0.0 0.0 0.00 0.00 0.00 84 1020.6
20210802083047 57 124 0.0 0.0 0.00 0.00 0.00 84 1020.9
20210802081545 57 114 1.0 0.0 0.00 0.00 0.00 85 1020.9